SWA1776 KMIA-KMCO

Flight info

Callsign SWA1776
Flight time 0h 35m
Altitude 20000
Route FLMGO2 WAPOM MUNGI1
Aircraft B38M/M-SADE2E3GHIJ4J7P2RWZ/LB1D1

Departure

Time 2026-05-04 23:56
Airport Miami International Airport (KMIA)

Arrival

Time 2026-05-05 00:31
Airport Orlando International Airport (KMCO)
Time Latitude Longitude Altitude Speed Heading
2026-05-04 23:33 25.79193 -80.27935 19 ft 0 kts 145°
2026-05-04 23:47 25.79200 -80.27940 18 ft 3 kts 145°
2026-05-04 23:47 25.79216 -80.27952 18 ft 2 kts 146°
2026-05-04 23:48 25.79232 -80.27962 19 ft 3 kts 168°
2026-05-04 23:48 25.79249 -80.27960 21 ft 3 kts 207°
2026-05-04 23:48 25.79263 -80.27950 18 ft 1 kts 223°
2026-05-04 23:48 25.79264 -80.27948 18 ft 1 kts 223°
2026-05-04 23:50 25.79259 -80.27954 18 ft 3 kts 223°
2026-05-04 23:50 25.79214 -80.27999 18 ft 18 kts 217°
2026-05-04 23:51 25.79086 -80.28072 18 ft 13 kts 213°
2026-05-04 23:51 25.79076 -80.28081 18 ft 0 kts 222°
2026-05-04 23:51 25.79076 -80.28082 18 ft 1 kts 222°
2026-05-04 23:51 25.79053 -80.28122 18 ft 15 kts 251°
2026-05-04 23:52 25.79026 -80.28248 18 ft 21 kts 299°
2026-05-04 23:52 25.79121 -80.28429 17 ft 35 kts 311°
2026-05-04 23:52 25.79280 -80.28714 17 ft 51 kts 299°
2026-05-04 23:52 25.79472 -80.29091 18 ft 60 kts 300°
2026-05-04 23:53 25.79664 -80.29466 17 ft 54 kts 300°
2026-05-04 23:53 25.79830 -80.29789 16 ft 30 kts 300°
2026-05-04 23:53 25.79918 -80.29965 17 ft 27 kts 299°
2026-05-04 23:53 25.80026 -80.30129 17 ft 17 kts 344°
2026-05-04 23:54 25.80073 -80.30089 16 ft 6 kts 90°
2026-05-04 23:54 25.80074 -80.30069 16 ft 1 kts 88°
2026-05-04 23:55 25.80089 -80.29692 16 ft 88 kts 88°
2026-05-04 23:56 25.80113 -80.29126 20 ft 132 kts 87°
2026-05-04 23:56 25.80157 -80.27956 359 ft 161 kts 87°
2026-05-04 23:56 25.80222 -80.26248 1317 ft 179 kts 85°
2026-05-04 23:56 25.80300 -80.24755 1848 ft 205 kts 84°
2026-05-04 23:57 25.80390 -80.23125 2601 ft 220 kts 85°
2026-05-04 23:57 25.80447 -80.21963 3175 ft 226 kts 85°
2026-05-04 23:57 25.80519 -80.20199 4051 ft 233 kts 88°
2026-05-04 23:57 25.80709 -80.18336 4674 ft 249 kts 71°
2026-05-04 23:58 25.81697 -80.16757 5488 ft 256 kts 36°
2026-05-04 23:58 25.83315 -80.15967 6235 ft 263 kts 10°
2026-05-04 23:58 25.85177 -80.15729 6448 ft 270 kts 358°
2026-05-04 23:58 25.87084 -80.15708 6916 ft 279 kts 358°
2026-05-04 23:59 25.89039 -80.15700 7037 ft 281 kts 356°
2026-05-04 23:59 25.90960 -80.15998 7051 ft 276 kts 341°
2026-05-04 23:59 25.92799 -80.16673 7068 ft 279 kts 338°
2026-05-04 23:59 25.94614 -80.17426 7286 ft 278 kts 337°
2026-05-05 00:00 25.96471 -80.18135 8064 ft 284 kts 339°
2026-05-05 00:00 25.97720 -80.18591 8667 ft 286 kts 338°
2026-05-05 00:00 25.99929 -80.20152 9880 ft 282 kts 314°
2026-05-05 00:00 26.01430 -80.21626 10518 ft 296 kts 315°
2026-05-05 00:01 26.03023 -80.23188 10929 ft 315 kts 315°
2026-05-05 00:01 26.04694 -80.24836 11496 ft 327 kts 315°
2026-05-05 00:01 26.06399 -80.26524 12382 ft 328 kts 314°
2026-05-05 00:01 26.08111 -80.28222 13256 ft 331 kts 314°
2026-05-05 00:02 26.09814 -80.29913 14096 ft 334 kts 314°
2026-05-05 00:02 26.11553 -80.31641 14924 ft 336 kts 314°
2026-05-05 00:02 26.13301 -80.33379 15759 ft 338 kts 314°
2026-05-05 00:02 26.15064 -80.35132 16554 ft 341 kts 313°
2026-05-05 00:03 26.16838 -80.36897 17335 ft 343 kts 313°
2026-05-05 00:03 26.18623 -80.38673 18102 ft 346 kts 313°
2026-05-05 00:03 26.20426 -80.40469 18775 ft 349 kts 313°
2026-05-05 00:03 26.22255 -80.42262 19388 ft 354 kts 317°
2026-05-05 00:04 26.24429 -80.43633 20055 ft 363 kts 328°
2026-05-05 00:04 26.26711 -80.44870 20639 ft 368 kts 328°
2026-05-05 00:04 26.29036 -80.46127 20917 ft 373 kts 328°
2026-05-05 00:04 26.31411 -80.47398 20962 ft 387 kts 329°
2026-05-05 00:05 26.33865 -80.48705 20976 ft 394 kts 329°
2026-05-05 00:05 26.36358 -80.50031 20985 ft 398 kts 329°
2026-05-05 00:05 26.38859 -80.51362 21001 ft 399 kts 329°
2026-05-05 00:05 26.41365 -80.52695 21004 ft 399 kts 329°
2026-05-05 00:06 26.43868 -80.54028 21017 ft 398 kts 329°
2026-05-05 00:06 26.46368 -80.55360 21024 ft 398 kts 329°
2026-05-05 00:06 26.48902 -80.56608 21004 ft 402 kts 336°
2026-05-05 00:06 26.51604 -80.57465 21023 ft 404 kts 338°
2026-05-05 00:07 26.54280 -80.58315 21014 ft 404 kts 338°
2026-05-05 00:07 26.56990 -80.59176 21035 ft 404 kts 338°
2026-05-05 00:07 26.59700 -80.60037 21017 ft 404 kts 338°
2026-05-05 00:07 26.62410 -80.60898 21018 ft 405 kts 338°
2026-05-05 00:08 26.65121 -80.61760 21017 ft 404 kts 338°
2026-05-05 00:08 26.67802 -80.62612 21019 ft 404 kts 338°
2026-05-05 00:08 26.70511 -80.63474 21018 ft 404 kts 338°
2026-05-05 00:08 26.73216 -80.64335 21018 ft 404 kts 338°
2026-05-05 00:09 26.75928 -80.65199 21019 ft 405 kts 338°
2026-05-05 00:09 26.78640 -80.66063 21019 ft 405 kts 338°
2026-05-05 00:09 26.81343 -80.66925 21020 ft 405 kts 338°
2026-05-05 00:09 26.84054 -80.67790 21021 ft 405 kts 338°
2026-05-05 00:10 26.86761 -80.68653 21047 ft 405 kts 339°
2026-05-05 00:10 26.89465 -80.69516 21031 ft 405 kts 338°
2026-05-05 00:10 26.92143 -80.70468 21026 ft 402 kts 335°
2026-05-05 00:10 26.94799 -80.71487 21026 ft 403 kts 336°
2026-05-05 00:11 26.97422 -80.72480 21025 ft 403 kts 336°
2026-05-05 00:11 27.00083 -80.73484 21025 ft 403 kts 336°
2026-05-05 00:11 27.02738 -80.74484 21025 ft 403 kts 336°
2026-05-05 00:11 27.05395 -80.75485 21026 ft 403 kts 336°
2026-05-05 00:12 27.08055 -80.76487 21024 ft 403 kts 336°
2026-05-05 00:12 27.10718 -80.77491 21026 ft 403 kts 336°
2026-05-05 00:12 27.13375 -80.78493 21026 ft 403 kts 336°
2026-05-05 00:12 27.16036 -80.79497 21026 ft 403 kts 336°
2026-05-05 00:13 27.18632 -80.80476 21054 ft 385 kts 336°
2026-05-05 00:13 27.21136 -80.81423 20762 ft 377 kts 336°
2026-05-05 00:13 27.23619 -80.82362 20290 ft 375 kts 336°
2026-05-05 00:13 27.26082 -80.83293 19844 ft 373 kts 336°
2026-05-05 00:14 27.28533 -80.84220 19381 ft 371 kts 336°
2026-05-05 00:14 27.30981 -80.85147 18916 ft 370 kts 336°
2026-05-05 00:14 27.33473 -80.85941 18378 ft 374 kts 340°
2026-05-05 00:14 27.35953 -80.86657 17900 ft 371 kts 340°
2026-05-05 00:15 27.38446 -80.87390 17445 ft 368 kts 340°
2026-05-05 00:15 27.40914 -80.88122 17005 ft 365 kts 341°
2026-05-05 00:15 27.43362 -80.88852 16576 ft 363 kts 341°
2026-05-05 00:15 27.45797 -80.89579 16126 ft 361 kts 341°
2026-05-05 00:16 27.48218 -80.90302 15693 ft 358 kts 342°
2026-05-05 00:16 27.50618 -80.91021 15265 ft 356 kts 342°
2026-05-05 00:16 27.53009 -80.91737 14836 ft 354 kts 342°
2026-05-05 00:16 27.55387 -80.92449 14433 ft 352 kts 342°
2026-05-05 00:17 27.57748 -80.93156 14022 ft 350 kts 343°
2026-05-05 00:17 27.60096 -80.93859 13577 ft 348 kts 342°
2026-05-05 00:17 27.62436 -80.94562 13126 ft 346 kts 343°
2026-05-05 00:17 27.64755 -80.95257 12723 ft 344 kts 342°
2026-05-05 00:18 27.67032 -80.95941 12319 ft 341 kts 342°
2026-05-05 00:18 27.69314 -80.96625 11919 ft 339 kts 342°
2026-05-05 00:18 27.71585 -80.97307 11518 ft 336 kts 342°
2026-05-05 00:18 27.73840 -80.97985 11122 ft 334 kts 342°
2026-05-05 00:19 27.76070 -80.98655 10892 ft 327 kts 342°
2026-05-05 00:19 27.78234 -80.99306 10745 ft 317 kts 342°
2026-05-05 00:19 27.80339 -80.99939 10601 ft 308 kts 342°
2026-05-05 00:19 27.82370 -81.00549 10437 ft 294 kts 342°
2026-05-05 00:20 27.84289 -81.01126 10309 ft 276 kts 341°
2026-05-05 00:20 27.86096 -81.01670 10166 ft 262 kts 341°
2026-05-05 00:20 27.87864 -81.02205 10041 ft 270 kts 342°
2026-05-05 00:20 27.89691 -81.02757 9752 ft 279 kts 342°
2026-05-05 00:21 27.91580 -81.03325 9423 ft 282 kts 342°
2026-05-05 00:21 27.93471 -81.03912 9102 ft 282 kts 338°
2026-05-05 00:21 27.95306 -81.04690 8775 ft 281 kts 336°
2026-05-05 00:21 27.97125 -81.05473 8474 ft 279 kts 336°
2026-05-05 00:22 27.98938 -81.06243 8188 ft 277 kts 336°
2026-05-05 00:22 28.00739 -81.07002 7888 ft 275 kts 336°
2026-05-05 00:22 28.02533 -81.07754 7596 ft 274 kts 336°
2026-05-05 00:22 28.04315 -81.08496 7290 ft 272 kts 336°
2026-05-05 00:23 28.05899 -81.09573 6950 ft 262 kts 312°
2026-05-05 00:23 28.06924 -81.11251 6393 ft 260 kts 294°
2026-05-05 00:23 28.07698 -81.13105 6082 ft 259 kts 293°
2026-05-05 00:23 28.08456 -81.14948 6004 ft 259 kts 293°
2026-05-05 00:24 28.09213 -81.16802 5998 ft 260 kts 293°
2026-05-05 00:24 28.09968 -81.18661 5990 ft 260 kts 293°
2026-05-05 00:24 28.10736 -81.20520 5985 ft 261 kts 297°
2026-05-05 00:24 28.11917 -81.22061 5855 ft 261 kts 319°
2026-05-05 00:25 28.13382 -81.23254 5513 ft 264 kts 322°
2026-05-05 00:25 28.14876 -81.24406 5391 ft 255 kts 323°
2026-05-05 00:25 28.16308 -81.25522 5295 ft 245 kts 323°
2026-05-05 00:25 28.17680 -81.26602 5197 ft 235 kts 323°
2026-05-05 00:26 28.19084 -81.27457 4991 ft 226 kts 340°
2026-05-05 00:26 28.20602 -81.27872 4671 ft 223 kts 351°
2026-05-05 00:26 28.22133 -81.28016 4325 ft 220 kts 358°
2026-05-05 00:26 28.23657 -81.28052 3974 ft 217 kts
2026-05-05 00:27 28.25157 -81.28069 3640 ft 214 kts
2026-05-05 00:27 28.26634 -81.28080 3331 ft 206 kts
2026-05-05 00:27 28.28000 -81.28095 3036 ft 184 kts
2026-05-05 00:27 28.29198 -81.28110 2767 ft 161 kts
2026-05-05 00:28 28.30272 -81.28117 2508 ft 152 kts
2026-05-05 00:28 28.31318 -81.28127 2264 ft 148 kts
2026-05-05 00:28 28.32351 -81.28134 2029 ft 149 kts
2026-05-05 00:28 28.33387 -81.28145 1810 ft 148 kts
2026-05-05 00:29 28.34414 -81.28158 1583 ft 148 kts
2026-05-05 00:29 28.35446 -81.28167 1374 ft 148 kts
2026-05-05 00:29 28.36471 -81.28179 1198 ft 146 kts
2026-05-05 00:29 28.37480 -81.28189 991 ft 145 kts
2026-05-05 00:30 28.38486 -81.28196 797 ft 144 kts
2026-05-05 00:30 28.39499 -81.28209 624 ft 146 kts
2026-05-05 00:30 28.40516 -81.28215 408 ft 145 kts
2026-05-05 00:30 28.41523 -81.28231 239 ft 144 kts
2026-05-05 00:31 28.42494 -81.28239 112 ft 123 kts 360°
2026-05-05 00:31 28.43140 -81.28243 101 ft 75 kts 360°
2026-05-05 00:31 28.43513 -81.28306 104 ft 20 kts 321°
2026-05-05 00:31 28.43561 -81.28358 106 ft 0 kts 333°
2026-05-05 00:32 28.43565 -81.28361 106 ft 2 kts 333°
2026-05-05 00:32 28.43589 -81.28373 107 ft 10 kts 344°
2026-05-05 00:32 28.43722 -81.28376 107 ft 28 kts 360°
2026-05-05 00:33 28.43879 -81.28433 110 ft 17 kts 267°
2026-05-05 00:33 28.43874 -81.28633 109 ft 35 kts 269°
2026-05-05 00:33 28.43873 -81.28982 109 ft 53 kts 270°
2026-05-05 00:33 28.43846 -81.29257 102 ft 12 kts 200°
2026-05-05 00:34 28.43755 -81.29264 104 ft 14 kts 179°
2026-05-05 00:34 28.43649 -81.29262 105 ft 17 kts 179°
2026-05-05 00:34 28.43555 -81.29313 107 ft 16 kts 261°
2026-05-05 00:34 28.43552 -81.29447 108 ft 18 kts 269°
2026-05-05 00:35 28.43551 -81.29656 106 ft 32 kts 269°
2026-05-05 00:35 28.43550 -81.29709 106 ft 1 kts 270°
2026-05-05 00:35 28.43551 -81.29731 106 ft 5 kts 270°
2026-05-05 00:35 28.43551 -81.29781 106 ft 8 kts 270°
2026-05-05 00:36 28.43550 -81.29882 104 ft 23 kts 266°
2026-05-05 00:36 28.43474 -81.29989 103 ft 12 kts 269°
2026-05-05 00:36 28.43474 -81.30014 103 ft 0 kts 270°